Location: Dos Palmas
(32.4468°N, 116.8732°W)
Time: 13:25:39
(UTC+00:00)

Cosmos 1447 Rocket - Pass Details

Date: 20 June 2021
Orbit: 954 x 996 km, 82.9° (Epoch: 30 July)

Event Time Altitude Azimuth Distance (km) Brightness Sun altitude
Exits shadow 06:03:16 83° 143° (SE) 984 4.3 -28.7°
Maximum altitude 06:03:29 85° 95° (E) 980 4.3 -28.7°
Drops below altitude 10° 06:09:42 10° 7° (N) 2,707 7.5 -29.3°
Sets 06:12:11 0° 7° (N) 3,652 8.3 -29.5°
